Time,TemperatureF,DewpointF,PressureIn,WindDirection,WindDirectionDegrees,WindSpeedMPH,WindSpeedGustMPH,Humidity,HourlyPrecipIn,Conditions,Clouds,dailyrainin,SolarRadiationWatts/m^2,SoftwareType,DateUTC
2017-09-20 00:04:00,66.5,62.8,30.05,West,269,0.0,0.0,88,0.00,,,0.00,0,Wunderground v.1.15,2017-09-20 04:04:00,
2017-09-20 00:09:00,66.6,63.3,30.05,West,269,0.0,1.0,89,0.00,,,0.00,0,Wunderground v.1.15,2017-09-20 04:09:00,
2017-09-20 00:14:00,66.6,63.3,30.06,West,269,0.0,0.0,89,0.00,,,0.00,0,Wunderground v.1.15,2017-09-20 04:14:00,
2017-09-20 00:19:00,66.4,62.7,30.06,West,269,0.0,0.0,88,0.00,,,0.00,0,Wunderground v.1.15,2017-09-20 04:19:00,
2017-09-20 00:25:00,66.3,62.6,30.06,West,269,0.0,0.0,88,0.00,,,0.00,0,Wunderground v.1.15,2017-09-20 04:25:00,
2017-09-20 00:31:00,66.2,62.5,30.06,West,269,0.0,3.0,88,0.00,,,0.00,0,Wunderground v.1.15,2017-09-20 04:31:00,
2017-09-20 00:42:00,65.9,62.2,30.06,West,269,0.0,3.0,88,0.00,,,0.00,0,Wunderground v.1.15,2017-09-20 04:42:00,
2017-09-20 00:48:00,65.7,62.0,30.06,West,269,0.0,3.0,88,0.00,,,0.00,0,Wunderground v.1.15,2017-09-20 04:48:00,
2017-09-20 00:54:00,65.5,62.2,30.05,West,269,0.0,3.0,89,0.00,,,0.00,0,Wunderground v.1.15,2017-09-20 04:54:00,
2017-09-20 00:59:00,65.4,62.1,30.05,West,269,0.0,3.0,89,0.00,,,0.00,0,Wunderground v.1.15,2017-09-20 04:59:00,
2017-09-20 01:05:00,65.3,62.0,30.05,West,269,0.0,1.0,89,0.00,,,0.00,0,Wunderground v.1.15,2017-09-20 05:05:00,
2017-09-20 01:10:00,65.3,62.3,30.05,West,269,0.0,0.0,90,0.00,,,0.00,0,Wunderground v.1.15,2017-09-20 05:10:00,
2017-09-20 01:15:00,65.2,62.2,30.05,West,269,0.0,0.0,90,0.00,,,0.00,0,Wunderground v.1.15,2017-09-20 05:15:00,
2017-09-20 01:21:00,65.3,62.6,30.05,West,269,0.0,0.0,91,0.00,,,0.00,0,Wunderground v.1.15,2017-09-20 05:21:00,
2017-09-20 01:26:00,65.3,62.6,30.05,West,269,0.0,0.0,91,0.00,,,0.00,0,Wunderground v.1.15,2017-09-20 05:26:00,
2017-09-20 01:32:00,65.1,62.1,30.05,West,269,0.0,1.0,90,0.00,,,0.00,0,Wunderground v.1.15,2017-09-20 05:32:00,
2017-09-20 01:37:00,65.0,62.0,30.05,West,269,0.0,1.0,90,0.00,,,0.00,0,Wunderground v.1.15,2017-09-20 05:37:00,
2017-09-20 01:43:00,64.9,62.2,30.06,West,269,0.0,1.0,91,0.00,,,0.00,0,Wunderground v.1.15,2017-09-20 05:43:00,
2017-09-20 01:49:00,64.9,62.2,30.05,West,269,0.0,1.0,91,0.00,,,0.00,0,Wunderground v.1.15,2017-09-20 05:49:00,
2017-09-20 01:55:00,64.9,62.2,30.06,West,269,0.0,1.0,91,0.00,,,0.00,0,Wunderground v.1.15,2017-09-20 05:55:00,
2017-09-20 02:01:00,64.8,62.1,30.05,West,269,0.0,0.0,91,0.00,,,0.00,0,Wunderground v.1.15,2017-09-20 06:01:00,
2017-09-20 02:07:00,64.7,62.0,30.05,West,269,0.0,1.0,91,0.00,,,0.00,0,Wunderground v.1.15,2017-09-20 06:07:00,
2017-09-20 02:12:00,64.7,62.0,30.05,West,269,0.0,0.0,91,0.00,,,0.00,0,Wunderground v.1.15,2017-09-20 06:12:00,
2017-09-20 02:18:00,64.7,62.0,30.05,West,269,0.0,0.0,91,0.00,,,0.00,0,Wunderground v.1.15,2017-09-20 06:18:00,
2017-09-20 02:24:00,64.5,61.8,30.05,West,269,0.0,0.0,91,0.00,,,0.00,0,Wunderground v.1.15,2017-09-20 06:24:00,
2017-09-20 02:29:00,64.5,61.8,30.05,West,269,0.0,0.0,91,0.00,,,0.00,0,Wunderground v.1.15,2017-09-20 06:29:00,
2017-09-20 02:35:00,64.4,61.7,30.05,West,269,0.0,3.0,91,0.00,,,0.00,0,Wunderground v.1.15,2017-09-20 06:35:00,
2017-09-20 02:41:00,64.3,61.9,30.05,West,269,0.0,3.0,92,0.00,,,0.00,0,Wunderground v.1.15,2017-09-20 06:41:00,
2017-09-20 02:46:00,64.3,61.9,30.05,West,269,0.0,3.0,92,0.00,,,0.00,0,Wunderground v.1.15,2017-09-20 06:46:00,
2017-09-20 02:51:00,64.3,61.9,30.04,West,269,0.0,3.0,92,0.00,,,0.00,0,Wunderground v.1.15,2017-09-20 06:51:00,
2017-09-20 02:56:00,64.3,61.9,30.04,West,269,0.0,3.0,92,0.00,,,0.00,0,Wunderground v.1.15,2017-09-20 06:56:00,
2017-09-20 03:02:00,64.2,61.8,30.05,West,269,0.0,0.0,92,0.00,,,0.00,0,Wunderground v.1.15,2017-09-20 07:02:00,
2017-09-20 03:08:00,64.1,61.7,30.04,West,269,0.0,0.0,92,0.00,,,0.00,0,Wunderground v.1.15,2017-09-20 07:08:00,
2017-09-20 03:13:00,64.0,61.6,30.04,West,269,0.0,0.0,92,0.00,,,0.00,0,Wunderground v.1.15,2017-09-20 07:13:00,
2017-09-20 03:19:00,64.0,61.6,30.04,West,269,0.0,0.0,92,0.00,,,0.00,0,Wunderground v.1.15,2017-09-20 07:19:00,
2017-09-20 03:24:00,63.8,61.4,30.04,West,269,0.0,1.0,92,0.00,,,0.00,0,Wunderground v.1.15,2017-09-20 07:24:00,
2017-09-20 03:29:00,63.8,61.4,30.04,West,269,0.0,1.0,92,0.00,,,0.00,0,Wunderground v.1.15,2017-09-20 07:29:00,
2017-09-20 03:35:00,63.7,61.6,30.04,West,269,0.0,2.0,93,0.00,,,0.00,0,Wunderground v.1.15,2017-09-20 07:35:00,
2017-09-20 03:41:00,63.7,61.6,30.04,West,269,0.0,2.0,93,0.00,,,0.00,0,Wunderground v.1.15,2017-09-20 07:41:00,
2017-09-20 03:47:00,63.7,61.6,30.04,West,269,0.0,2.0,93,0.00,,,0.00,0,Wunderground v.1.15,2017-09-20 07:47:00,
2017-09-20 03:53:00,63.6,61.5,30.04,West,269,0.0,2.0,93,0.00,,,0.00,0,Wunderground v.1.15,2017-09-20 07:53:00,
2017-09-20 03:59:00,63.6,61.5,30.04,West,269,0.0,2.0,93,0.00,,,0.00,0,Wunderground v.1.15,2017-09-20 07:59:00,
2017-09-20 04:05:00,63.5,61.4,30.04,West,269,0.0,0.0,93,0.00,,,0.00,0,Wunderground v.1.15,2017-09-20 08:05:00,
2017-09-20 04:11:00,63.5,61.7,30.04,West,269,0.0,0.0,94,0.00,,,0.00,0,Wunderground v.1.15,2017-09-20 08:11:00,
2017-09-20 04:16:00,63.4,61.6,30.04,West,269,0.0,0.0,94,0.00,,,0.00,0,Wunderground v.1.15,2017-09-20 08:16:00,
2017-09-20 04:22:00,63.3,61.5,30.05,West,269,0.0,0.0,94,0.00,,,0.00,0,Wunderground v.1.15,2017-09-20 08:22:00,
2017-09-20 04:27:00,63.2,61.1,30.05,West,269,0.0,0.0,93,0.00,,,0.00,0,Wunderground v.1.15,2017-09-20 08:27:00,
2017-09-20 04:33:00,63.2,61.1,30.05,West,269,0.0,2.0,93,0.00,,,0.00,0,Wunderground v.1.15,2017-09-20 08:33:00,
2017-09-20 04:38:00,63.1,61.0,30.05,West,269,0.0,2.0,93,0.00,,,0.00,0,Wunderground v.1.15,2017-09-20 08:38:00,
2017-09-20 04:43:00,63.1,61.0,30.05,West,269,0.0,2.0,93,0.00,,,0.00,0,Wunderground v.1.15,2017-09-20 08:43:00,
2017-09-20 04:49:00,63.0,61.2,30.05,West,269,0.0,2.0,94,0.00,,,0.00,0,Wunderground v.1.15,2017-09-20 08:49:00,
2017-09-20 04:54:00,63.1,61.3,30.05,West,269,0.0,2.0,94,0.00,,,0.00,0,Wunderground v.1.15,2017-09-20 08:54:00,
2017-09-20 04:59:00,63.0,61.2,30.05,West,269,0.0,2.0,94,0.00,,,0.00,0,Wunderground v.1.15,2017-09-20 08:59:00,
2017-09-20 05:05:00,63.0,61.2,30.05,West,269,0.0,0.0,94,0.00,,,0.00,0,Wunderground v.1.15,2017-09-20 09:05:00,
2017-09-20 05:11:00,63.0,61.2,30.06,West,269,0.0,0.0,94,0.00,,,0.00,0,Wunderground v.1.15,2017-09-20 09:11:00,
2017-09-20 05:16:00,62.9,61.1,30.06,West,269,0.0,0.0,94,0.00,,,0.00,0,Wunderground v.1.15,2017-09-20 09:16:00,
2017-09-20 05:22:00,62.8,61.0,30.06,West,269,0.0,0.0,94,0.00,,,0.00,0,Wunderground v.1.15,2017-09-20 09:22:00,
2017-09-20 05:28:00,62.7,60.9,30.06,West,269,0.0,0.0,94,0.00,,,0.00,0,Wunderground v.1.15,2017-09-20 09:28:00,
2017-09-20 05:34:00,62.5,60.4,30.06,West,269,0.0,1.0,93,0.00,,,0.00,0,Wunderground v.1.15,2017-09-20 09:34:00,
2017-09-20 05:40:00,62.3,60.2,30.06,West,269,0.0,1.0,93,0.00,,,0.00,0,Wunderground v.1.15,2017-09-20 09:40:00,
2017-09-20 05:46:00,62.2,60.2,30.06,West,269,0.0,1.0,93,0.00,,,0.00,0,Wunderground v.1.15,2017-09-20 09:46:00,
2017-09-20 05:51:00,62.1,60.1,30.06,West,269,0.0,1.0,93,0.00,,,0.00,0,Wunderground v.1.15,2017-09-20 09:51:00,
2017-09-20 05:57:00,62.0,60.0,30.06,West,269,0.0,1.0,93,0.00,,,0.00,0,Wunderground v.1.15,2017-09-20 09:57:00,
2017-09-20 06:02:00,62.0,60.3,30.06,West,269,0.0,0.0,94,0.00,,,0.00,0,Wunderground v.1.15,2017-09-20 10:02:00,
2017-09-20 06:08:00,62.0,60.3,30.07,West,269,0.0,0.0,94,0.00,,,0.00,0,Wunderground v.1.15,2017-09-20 10:08:00,
2017-09-20 06:14:00,62.0,60.3,30.07,West,269,0.0,0.0,94,0.00,,,0.00,0,Wunderground v.1.15,2017-09-20 10:14:00,
2017-09-20 06:19:00,62.0,60.3,30.07,West,269,0.0,0.0,94,0.00,,,0.00,0,Wunderground v.1.15,2017-09-20 10:19:00,
2017-09-20 06:24:00,61.9,60.2,30.07,West,269,0.0,0.0,94,0.00,,,0.00,0,Wunderground v.1.15,2017-09-20 10:24:00,
2017-09-20 06:29:00,61.8,60.1,30.07,West,269,0.0,0.0,94,0.00,,,0.00,0,Wunderground v.1.15,2017-09-20 10:29:00,
2017-09-20 06:35:00,61.7,60.0,30.08,West,269,0.0,0.0,94,0.00,,,0.00,0,Wunderground v.1.15,2017-09-20 10:35:00,
2017-09-20 06:40:00,61.6,59.9,30.08,West,269,0.0,0.0,94,0.00,,,0.00,0,Wunderground v.1.15,2017-09-20 10:40:00,
2017-09-20 06:46:00,61.4,59.7,30.08,West,269,0.0,0.0,94,0.00,,,0.00,0,Wunderground v.1.15,2017-09-20 10:46:00,
2017-09-20 06:51:00,61.4,59.7,30.08,West,269,0.0,0.0,94,0.00,,,0.00,0,Wunderground v.1.15,2017-09-20 10:51:00,
2017-09-20 06:57:00,61.4,59.7,30.09,West,269,0.0,0.0,94,0.00,,,0.00,0,Wunderground v.1.15,2017-09-20 10:57:00,
2017-09-20 07:02:00,61.3,59.6,30.09,West,269,0.0,0.0,94,0.00,,,0.00,0,Wunderground v.1.15,2017-09-20 11:02:00,
2017-09-20 07:08:00,61.2,59.5,30.09,West,269,0.0,0.0,94,0.00,,,0.00,0,Wunderground v.1.15,2017-09-20 11:08:00,
2017-09-20 07:14:00,61.3,59.9,30.09,West,269,0.0,0.0,95,0.00,,,0.00,0,Wunderground v.1.15,2017-09-20 11:14:00,
2017-09-20 07:20:00,61.4,60.0,30.09,WNW,292,0.0,1.0,95,0.00,,,0.00,5,Wunderground v.1.15,2017-09-20 11:20:00,
2017-09-20 07:26:00,61.7,60.5,30.09,WNW,293,1.0,2.0,96,0.00,,,0.00,7,Wunderground v.1.15,2017-09-20 11:26:00,
2017-09-20 07:32:00,61.7,60.3,30.09,WNW,293,0.0,1.0,95,0.00,,,0.00,11,Wunderground v.1.15,2017-09-20 11:32:00,
2017-09-20 07:38:00,61.7,60.3,30.10,WNW,292,0.0,1.0,95,0.00,,,0.00,16,Wunderground v.1.15,2017-09-20 11:38:00,
2017-09-20 07:43:00,61.7,60.5,30.10,WNW,293,0.0,0.0,96,0.00,,,0.00,19,Wunderground v.1.15,2017-09-20 11:43:00,
2017-09-20 07:49:00,61.8,60.6,30.10,WNW,293,0.0,1.0,96,0.00,,,0.00,25,Wunderground v.1.15,2017-09-20 11:49:00,
2017-09-20 07:54:00,61.7,60.5,30.10,WNW,292,0.0,0.0,96,0.00,,,0.00,30,Wunderground v.1.15,2017-09-20 11:54:00,
2017-09-20 07:59:00,61.7,60.5,30.11,WNW,292,0.0,0.0,96,0.00,,,0.00,35,Wunderground v.1.15,2017-09-20 11:59:00,
2017-09-20 08:05:00,61.8,60.6,30.11,WNW,293,0.0,1.0,96,0.00,,,0.00,54,Wunderground v.1.15,2017-09-20 12:05:00,
2017-09-20 08:11:00,62.5,61.3,30.11,WNW,293,0.0,0.0,96,0.00,,,0.00,81,Wunderground v.1.15,2017-09-20 12:11:00,
2017-09-20 08:16:00,62.9,61.7,30.11,WNW,292,0.0,0.0,96,0.00,,,0.00,91,Wunderground v.1.15,2017-09-20 12:16:00,
2017-09-20 08:22:00,64.0,63.1,30.12,WNW,293,0.0,0.0,97,0.00,,,0.00,105,Wunderground v.1.15,2017-09-20 12:22:00,
2017-09-20 08:27:00,64.7,63.5,30.12,NE,37,1.0,2.0,96,0.00,,,0.00,127,Wunderground v.1.15,2017-09-20 12:27:00,
2017-09-20 08:33:00,65.4,64.2,30.12,North,5,1.0,4.0,96,0.00,,,0.00,148,Wunderground v.1.15,2017-09-20 12:33:00,
2017-09-20 08:38:00,65.8,64.3,30.12,NNE,28,2.0,4.0,95,0.00,,,0.00,160,Wunderground v.1.15,2017-09-20 12:38:00,
2017-09-20 08:44:00,66.0,64.5,30.12,NE,46,3.0,3.0,95,0.00,,,0.00,171,Wunderground v.1.15,2017-09-20 12:44:00,
2017-09-20 08:49:00,66.3,64.5,30.12,NE,46,2.0,3.0,94,0.00,,,0.00,188,Wunderground v.1.15,2017-09-20 12:49:00,
2017-09-20 08:55:00,66.8,65.0,30.12,NE,36,2.0,4.0,94,0.00,,,0.00,214,Wunderground v.1.15,2017-09-20 12:55:00,
2017-09-20 09:00:00,67.2,65.1,30.12,NE,37,3.0,3.0,93,0.00,,,0.00,230,Wunderground v.1.15,2017-09-20 13:00:00,
2017-09-20 09:05:00,67.7,65.3,30.12,NE,38,2.0,3.0,92,0.00,,,0.00,230,Wunderground v.1.15,2017-09-20 13:05:00,
2017-09-20 09:11:00,68.3,65.9,30.12,North,5,2.0,2.0,92,0.00,,,0.00,258,Wunderground v.1.15,2017-09-20 13:11:00,
2017-09-20 09:16:00,68.8,66.1,30.12,NE,44,2.0,3.0,91,0.00,,,0.00,299,Wunderground v.1.15,2017-09-20 13:16:00,
2017-09-20 09:21:00,69.1,66.0,30.13,NE,49,2.0,2.0,90,0.00,,,0.00,327,Wunderground v.1.15,2017-09-20 13:21:00,
2017-09-20 09:27:00,69.5,66.1,30.13,NE,51,2.0,3.0,89,0.00,,,0.00,346,Wunderground v.1.15,2017-09-20 13:27:00,
2017-09-20 09:33:00,69.9,66.2,30.13,NE,44,2.0,4.0,88,0.00,,,0.00,364,Wunderground v.1.15,2017-09-20 13:33:00,
2017-09-20 09:39:00,70.2,66.1,30.13,NE,44,1.0,4.0,87,0.00,,,0.00,388,Wunderground v.1.15,2017-09-20 13:39:00,
2017-09-20 09:44:00,70.8,66.7,30.13,NE,44,1.0,4.0,87,0.00,,,0.00,403,Wunderground v.1.15,2017-09-20 13:44:00,
2017-09-20 09:50:00,71.3,66.2,30.13,NE,44,0.0,4.0,84,0.00,,,0.00,424,Wunderground v.1.15,2017-09-20 13:50:00,
2017-09-20 09:55:00,71.9,65.8,30.13,West,275,0.0,4.0,81,0.00,,,0.00,445,Wunderground v.1.15,2017-09-20 13:55:00,
2017-09-20 10:00:00,72.0,65.5,30.13,West,265,0.0,0.0,80,0.00,,,0.00,464,Wunderground v.1.15,2017-09-20 14:00:00,
2017-09-20 10:06:00,72.1,66.3,30.13,West,265,0.0,0.0,82,0.00,,,0.00,478,Wunderground v.1.15,2017-09-20 14:06:00,
2017-09-20 10:11:00,72.8,67.0,30.13,West,265,0.0,0.0,82,0.00,,,0.00,499,Wunderground v.1.15,2017-09-20 14:11:00,
2017-09-20 10:17:00,73.4,66.9,30.13,WSW,245,0.0,1.0,80,0.00,,,0.00,512,Wunderground v.1.15,2017-09-20 14:17:00,
2017-09-20 10:22:00,73.1,66.6,30.14,WSW,244,1.0,1.0,80,0.00,,,0.00,520,Wunderground v.1.15,2017-09-20 14:22:00,
2017-09-20 10:28:00,73.2,66.3,30.14,WSW,244,1.0,1.0,79,0.00,,,0.00,526,Wunderground v.1.15,2017-09-20 14:28:00,
2017-09-20 10:33:00,73.6,66.7,30.14,SSW,211,1.0,4.0,79,0.00,,,0.00,513,Wunderground v.1.15,2017-09-20 14:33:00,
2017-09-20 10:39:00,74.0,66.7,30.14,SW,216,2.0,4.0,78,0.00,,,0.00,533,Wunderground v.1.15,2017-09-20 14:39:00,
2017-09-20 10:44:00,74.3,67.7,30.14,WSW,238,3.0,4.0,80,0.00,,,0.00,527,Wunderground v.1.15,2017-09-20 14:44:00,
2017-09-20 10:50:00,74.0,66.7,30.14,South,181,2.0,4.0,78,0.00,,,0.00,520,Wunderground v.1.15,2017-09-20 14:50:00,
2017-09-20 10:56:00,74.1,67.5,30.14,SSW,204,2.0,4.0,80,0.00,,,0.00,517,Wunderground v.1.15,2017-09-20 14:56:00,
2017-09-20 11:01:00,74.3,67.0,30.14,SSW,213,2.0,3.0,78,0.00,,,0.00,515,Wunderground v.1.15,2017-09-20 15:01:00,
2017-09-20 11:06:00,74.7,66.6,30.14,SSW,200,3.0,3.0,76,0.00,,,0.00,517,Wunderground v.1.15,2017-09-20 15:06:00,
2017-09-20 11:12:00,75.3,68.0,30.14,SSW,194,2.0,2.0,78,0.00,,,0.00,526,Wunderground v.1.15,2017-09-20 15:12:00,
2017-09-20 11:18:00,75.4,66.9,30.14,SSW,213,2.0,5.0,75,0.00,,,0.00,543,Wunderground v.1.15,2017-09-20 15:18:00,
2017-09-20 11:23:00,75.7,66.4,30.14,SW,221,2.0,4.0,73,0.00,,,0.00,566,Wunderground v.1.15,2017-09-20 15:23:00,
2017-09-20 11:28:00,75.9,67.0,30.13,SW,217,2.0,4.0,74,0.00,,,0.00,594,Wunderground v.1.15,2017-09-20 15:28:00,
2017-09-20 11:34:00,76.3,67.0,30.13,SSW,192,2.0,3.0,73,0.00,,,0.00,629,Wunderground v.1.15,2017-09-20 15:34:00,
2017-09-20 11:44:00,76.9,66.4,30.13,WSW,244,2.0,5.0,70,0.00,,,0.00,694,Wunderground v.1.15,2017-09-20 15:44:00,
2017-09-20 11:50:00,77.1,65.7,30.13,SW,215,2.0,3.0,68,0.00,,,0.00,726,Wunderground v.1.15,2017-09-20 15:50:00,
2017-09-20 11:55:00,77.2,65.0,30.13,South,183,2.0,3.0,66,0.00,,,0.00,744,Wunderground v.1.15,2017-09-20 15:55:00,
2017-09-20 12:00:00,77.4,66.4,30.13,WSW,242,2.0,3.0,69,0.00,,,0.00,754,Wunderground v.1.15,2017-09-20 16:00:00,
2017-09-20 12:06:00,78.3,65.6,30.13,SSW,192,3.0,7.0,65,0.00,,,0.00,761,Wunderground v.1.15,2017-09-20 16:06:00,
2017-09-20 12:12:00,78.4,65.7,30.13,SSW,209,3.0,3.0,65,0.00,,,0.00,770,Wunderground v.1.15,2017-09-20 16:12:00,
2017-09-20 12:18:00,78.4,65.7,30.13,SSW,201,2.0,5.0,65,0.00,,,0.00,780,Wunderground v.1.15,2017-09-20 16:18:00,
2017-09-20 12:24:00,78.5,65.8,30.12,SSW,213,2.0,5.0,65,0.00,,,0.00,789,Wunderground v.1.15,2017-09-20 16:24:00,
2017-09-20 12:30:00,78.6,65.8,30.12,SSW,211,3.0,3.0,65,0.00,,,0.00,796,Wunderground v.1.15,2017-09-20 16:30:00,
2017-09-20 12:35:00,79.2,67.3,30.12,SW,234,3.0,6.0,67,0.00,,,0.00,803,Wunderground v.1.15,2017-09-20 16:35:00,
2017-09-20 12:41:00,79.4,66.2,30.12,SSW,211,4.0,6.0,64,0.00,,,0.00,805,Wunderground v.1.15,2017-09-20 16:41:00,
2017-09-20 12:47:00,79.6,69.0,30.12,SSW,192,3.0,6.0,70,0.00,,,0.00,805,Wunderground v.1.15,2017-09-20 16:47:00,
2017-09-20 12:52:00,79.9,67.5,30.11,WSW,250,3.0,6.0,66,0.00,,,0.00,809,Wunderground v.1.15,2017-09-20 16:52:00,
2017-09-20 12:57:00,80.1,67.7,30.11,SSW,202,3.0,6.0,66,0.00,,,0.00,812,Wunderground v.1.15,2017-09-20 16:57:00,
2017-09-20 13:02:00,80.4,67.6,30.11,SW,229,3.0,5.0,65,0.00,,,0.00,814,Wunderground v.1.15,2017-09-20 17:02:00,
2017-09-20 13:08:00,80.5,68.1,30.11,SSW,200,3.0,5.0,66,0.00,,,0.00,824,Wunderground v.1.15,2017-09-20 17:08:00,
2017-09-20 13:13:00,80.4,68.9,30.11,SSE,168,3.0,5.0,68,0.00,,,0.00,826,Wunderground v.1.15,2017-09-20 17:13:00,
2017-09-20 13:19:00,81.1,68.7,30.10,SW,221,3.0,5.0,66,0.00,,,0.00,831,Wunderground v.1.15,2017-09-20 17:19:00,
2017-09-20 13:25:00,81.2,67.9,30.10,SSW,200,3.0,6.0,64,0.00,,,0.00,835,Wunderground v.1.15,2017-09-20 17:25:00,
2017-09-20 13:30:00,81.1,67.8,30.10,South,178,3.0,4.0,64,0.00,,,0.00,837,Wunderground v.1.15,2017-09-20 17:30:00,
2017-09-20 13:36:00,81.7,70.1,30.10,SE,139,3.0,5.0,68,0.00,,,0.00,833,Wunderground v.1.15,2017-09-20 17:36:00,
2017-09-20 13:41:00,81.9,68.1,30.10,SSW,196,2.0,5.0,63,0.00,,,0.00,860,Wunderground v.1.15,2017-09-20 17:41:00,
2017-09-20 13:47:00,82.0,67.7,30.09,SW,234,3.0,7.0,62,0.00,,,0.00,886,Wunderground v.1.15,2017-09-20 17:47:00,
2017-09-20 13:52:00,81.8,68.0,30.09,SSW,206,4.0,5.0,63,0.00,,,0.00,921,Wunderground v.1.15,2017-09-20 17:52:00,
2017-09-20 13:58:00,82.0,67.7,30.09,SSW,200,3.0,6.0,62,0.00,,,0.00,902,Wunderground v.1.15,2017-09-20 17:58:00,
2017-09-20 14:03:00,82.0,68.6,30.09,SW,219,2.0,5.0,64,0.00,,,0.00,888,Wunderground v.1.15,2017-09-20 18:03:00,
2017-09-20 14:08:00,82.7,69.7,30.09,WSW,248,3.0,5.0,65,0.00,,,0.00,833,Wunderground v.1.15,2017-09-20 18:08:00,
2017-09-20 14:14:00,83.1,68.3,30.09,SSW,198,4.0,6.0,61,0.00,,,0.00,884,Wunderground v.1.15,2017-09-20 18:14:00,
2017-09-20 14:20:00,83.0,68.2,30.08,SW,234,4.0,4.0,61,0.00,,,0.00,877,Wunderground v.1.15,2017-09-20 18:20:00,
2017-09-20 14:25:00,83.0,68.6,30.08,SSW,202,4.0,4.0,62,0.00,,,0.00,875,Wunderground v.1.15,2017-09-20 18:25:00,
2017-09-20 14:31:00,83.6,68.7,30.08,SE,134,3.0,5.0,61,0.00,,,0.00,870,Wunderground v.1.15,2017-09-20 18:31:00,
2017-09-20 14:37:00,84.1,70.6,30.08,South,190,3.0,8.0,64,0.00,,,0.00,877,Wunderground v.1.15,2017-09-20 18:37:00,
2017-09-20 14:42:00,84.1,69.7,30.08,SSW,208,3.0,8.0,62,0.00,,,0.00,842,Wunderground v.1.15,2017-09-20 18:42:00,
2017-09-20 14:48:00,83.5,68.6,30.08,SSW,202,4.0,8.0,61,0.00,,,0.00,874,Wunderground v.1.15,2017-09-20 18:48:00,
2017-09-20 14:53:00,83.6,69.7,30.08,SSW,205,4.0,8.0,63,0.00,,,0.00,891,Wunderground v.1.15,2017-09-20 18:53:00,
2017-09-20 14:59:00,83.9,69.0,30.07,WSW,246,4.0,8.0,61,0.00,,,0.00,838,Wunderground v.1.15,2017-09-20 18:59:00,
2017-09-20 15:04:00,84.2,69.8,30.07,SW,225,4.0,6.0,62,0.00,,,0.00,912,Wunderground v.1.15,2017-09-20 19:04:00,
2017-09-20 15:09:00,83.4,69.5,30.07,SSW,213,3.0,6.0,63,0.00,,,0.00,246,Wunderground v.1.15,2017-09-20 19:09:00,
2017-09-20 15:15:00,83.0,68.6,30.07,SW,231,3.0,5.0,62,0.00,,,0.00,162,Wunderground v.1.15,2017-09-20 19:15:00,
2017-09-20 15:20:00,82.3,67.5,30.07,West,264,3.0,3.0,61,0.00,,,0.00,330,Wunderground v.1.15,2017-09-20 19:20:00,
2017-09-20 15:26:00,82.5,68.6,30.07,South,182,2.0,3.0,63,0.00,,,0.00,782,Wunderground v.1.15,2017-09-20 19:26:00,
2017-09-20 15:31:00,83.3,68.0,30.06,SSE,159,2.0,9.0,60,0.00,,,0.00,761,Wunderground v.1.15,2017-09-20 19:31:00,
2017-09-20 15:37:00,83.9,67.5,30.06,South,178,2.0,9.0,58,0.00,,,0.00,728,Wunderground v.1.15,2017-09-20 19:37:00,
2017-09-20 15:42:00,83.9,69.5,30.06,SSE,166,2.0,9.0,62,0.00,,,0.00,731,Wunderground v.1.15,2017-09-20 19:42:00,
2017-09-20 15:48:00,83.6,66.8,30.06,SW,225,2.0,9.0,57,0.00,,,0.00,104,Wunderground v.1.15,2017-09-20 19:48:00,
2017-09-20 15:53:00,83.4,68.1,30.06,SW,230,3.0,9.0,60,0.00,,,0.00,691,Wunderground v.1.15,2017-09-20 19:53:00,
2017-09-20 15:59:00,84.3,67.9,30.06,SSW,207,2.0,9.0,58,0.00,,,0.00,703,Wunderground v.1.15,2017-09-20 19:59:00,
2017-09-20 16:04:00,84.3,67.9,30.05,SW,227,2.0,3.0,58,0.00,,,0.00,694,Wunderground v.1.15,2017-09-20 20:04:00,
2017-09-20 16:10:00,84.0,67.1,30.05,SW,232,2.0,4.0,57,0.00,,,0.00,714,Wunderground v.1.15,2017-09-20 20:10:00,
2017-09-20 16:16:00,84.6,68.7,30.05,SW,229,3.0,4.0,59,0.00,,,0.00,659,Wunderground v.1.15,2017-09-20 20:16:00,
2017-09-20 16:21:00,85.2,68.2,30.05,WSW,238,3.0,4.0,57,0.00,,,0.00,613,Wunderground v.1.15,2017-09-20 20:21:00,
2017-09-20 16:27:00,85.0,68.1,30.05,SSW,200,3.0,4.0,57,0.00,,,0.00,601,Wunderground v.1.15,2017-09-20 20:27:00,
2017-09-20 16:33:00,85.1,67.1,30.05,SSW,195,3.0,6.0,55,0.00,,,0.00,638,Wunderground v.1.15,2017-09-20 20:33:00,
2017-09-20 16:39:00,85.1,67.6,30.05,SW,218,2.0,6.0,56,0.00,,,0.00,610,Wunderground v.1.15,2017-09-20 20:39:00,
2017-09-20 16:45:00,85.2,67.7,30.05,SW,231,3.0,6.0,56,0.00,,,0.00,575,Wunderground v.1.15,2017-09-20 20:45:00,
2017-09-20 16:51:00,85.2,66.1,30.04,South,184,3.0,6.0,53,0.00,,,0.00,571,Wunderground v.1.15,2017-09-20 20:51:00,